This is the latest recevied weather packets stored in our database for station/object DF9PM-13. If no packets are shown the sender has not sent any weather packets the latest 1 day(s).
| Time | Temp. | Humidity | Pressure | Rain* | Wind** | Luminosity | Snow |
|---|---|---|---|---|---|---|---|
| 1777988756 | 18.33° C | 10% | - | - | 2.68 m/s, 220° | - | - |
| 1777988456 | 17.78° C | 10% | - | - | 1.79 m/s, 220° | - | - |
| 1777988157 | 17.78° C | 10% | - | - | 1.79 m/s, 220° | - | - |
| 1777987856 | 17.78° C | 10% | - | - | 1.79 m/s, 220° | - | - |
| 1777987556 | 18.33° C | 10% | - | - | 1.79 m/s, 220° | - | - |
| 1777987256 | 17.78° C | 10% | - | - | 1.79 m/s, 220° | - | - |
| 1777986956 | 17.78° C | 10% | - | - | 1.79 m/s, 220° | - | - |
| 1777986656 | 18.89° C | 99% | 1007.8 hPa | - | 1.79 m/s, 220° | - | - |
| 1777986356 | 18.89° C | 98% | 1007.8 hPa | - | 1.34 m/s, 230° | - | - |
| 1777986056 | 19.44° C | 98% | 1007.8 hPa | - | 1.34 m/s, 230° | - | - |
| 1777985756 | 18.33° C | 10% | - | - | 1.34 m/s, 230° | - | - |
| 1777985456 | 18.89° C | 93% | 1007.8 hPa | - | 1.34 m/s, 230° | - | - |
| 1777985156 | 20° C | 78% | 1007.8 hPa | - | 1.34 m/s, 230° | - | - |
| 1777984856 | 18.89° C | 86% | 1007.9 hPa | - | 1.34 m/s, 230° | - | - |
| 1777984556 | 18.89° C | 83% | 1007.9 hPa | - | 1.79 m/s, 220° | - | - |
| 1777984256 | 20° C | 77% | 1007.9 hPa | - | 1.79 m/s, 220° | - | - |
| 1777983956 | 18.89° C | 80% | 1008 hPa | - | 1.79 m/s, 220° | - | - |
| 1777983655 | 19.44° C | 73% | 1007.9 hPa | - | 1.79 m/s, 220° | - | - |
| 1777983355 | 20° C | 67% | 1007.8 hPa | - | 1.79 m/s, 220° | - | - |
| 1777983055 | 19.44° C | 66% | 1007.8 hPa | - | 0.89 m/s, 0° | - | - |
| 1777982755 | 20.56° C | 61% | 1007.9 hPa | - | 0.89 m/s, 0° | - | - |
| 1777982455 | 21.11° C | 60% | 1007.8 hPa | - | 0.89 m/s, 0° | - | - |
| 1777982155 | 20.56° C | 63% | 1007.9 hPa | - | 0.89 m/s, 0° | - | - |
| 1777981855 | 20° C | 64% | 1007.9 hPa | - | 0.89 m/s, 0° | - | - |
| 1777981555 | 21.67° C | 57% | 1007.9 hPa | - | 0.89 m/s, 0° | - | - |
* Rain since midnight (hover to see other rain measurements)
** Current wind speed in m/s (hover to see current wind gust speed)